Hayward, WI

8:57 AM CDT on March 27, 2017 (GMT -0500)
Sawyer County

Weather History for KHYR - November, 2012

Change the Weather History Date:

Wednesday, November 7, 2012

  Actual Average Record
Temperature  
Mean Temperature 37 °F -  
Max Temperature 39 °F 44 °F 61 °F (2002)
Min Temperature 35 °F 35 °F 0 °F (2003)
Degree Days  
Heating Degree Days 28    
Moisture  
Dew Point 35 °F    
Average Humidity 92    
Maximum Humidity 100    
Minimum Humidity 83    
Precipitation  
Precipitation 0.00 in - - ()
Sea Level Pressure  
Sea Level Pressure 30.07 in    
Wind  
Wind Speed 1 mph (SW)    
Max Wind Speed 4 mph    
Max Gust Speed -    
Visibility 7 miles    
Events Fog    
Averages and records for this station are not official NWS values.
T = Trace of Precipitation, MM = Missing Value Source: NWS Daily Summary

Daily Weather History Graph

Daily Weather History Graph

Search for Another Location

Airport or City:

Trip Planner

Search our weather history database for the weather conditions in past years. The results will help you decide how hot, cold, wet, or windy it might be!

Date:

Astronomy

Nov. 07, 2012 Rise Set
Actual Time 6:55 AM CST 4:42 PM CST
Civil Twilight 6:23 AM CST 5:14 PM CST
Nautical Twilight 5:48 AM CST 5:50 PM CST
Astronomical Twilight 5:13 AM CST 6:25 PM CST
Moon No Moon Rise 1:12 PM CST (11/7)
Length of Visible Light 10h 50m
Length of Day
9h 47m
Last Quarter, 43% of the Moon is Illuminated
Nov 7
Last Quarter
Nov 13
New
Nov 20
First Quarter
Nov 28
Full
Dec 6
Last Quarter

Hourly Weather History & Observations

Time (CST) Temp. Windchill Dew Point Humidity Pressure Visibility Wind Dir Wind Speed Gust Speed Precip Events Conditions
12:53 AM 36.0 °F - 34.0 °F 93% 29.99 in 10.0 mi Calm Calm - N/A   Overcast
1:53 AM 36.0 °F - 34.0 °F 93% 30.00 in 10.0 mi Calm Calm - N/A   Overcast
2:53 AM 36.0 °F - 34.0 °F 93% 30.01 in 10.0 mi Calm Calm - N/A   Overcast
3:53 AM 36.0 °F - 34.0 °F 93% 30.03 in 10.0 mi Calm Calm - N/A   Overcast
4:53 AM 36.0 °F - 33.1 °F 89% 30.04 in 10.0 mi Calm Calm - N/A   Overcast
5:34 AM 35.6 °F - 33.8 °F 93% 30.01 in 10.0 mi Calm Calm - N/A   Overcast
5:53 AM 35.1 °F - 34.0 °F 96% 30.06 in 10.0 mi Calm Calm - N/A   Overcast
6:45 AM 35.6 °F - 33.8 °F 93% 30.03 in 2.0 mi Calm Calm - N/A   Overcast
6:53 AM 35.1 °F - 34.0 °F 96% 30.08 in 1.5 mi Calm Calm - N/A   Overcast
7:09 AM 35.6 °F - 35.6 °F 100% 30.04 in 1.0 mi Calm Calm - N/A   Overcast
7:17 AM 35.6 °F - 33.8 °F 93% 30.05 in 0.8 mi Calm Calm - N/A   Mist
7:53 AM 36.0 °F - 35.1 °F 97% 30.09 in 0.5 mi Calm Calm - N/A Fog Fog
8:13 AM 35.6 °F 32.8 °F 35.6 °F 100% 30.05 in 1.0 mi SW 3.5 mph - N/A   Overcast
8:32 AM 35.6 °F - 35.6 °F 100% 30.06 in 0.8 mi Calm Calm - N/A   Overcast
8:53 AM 36.0 °F 33.3 °F 35.1 °F 97% 30.10 in 0.5 mi Variable 3.5 mph - N/A Fog Fog
9:36 AM 37.4 °F 34.9 °F 35.6 °F 93% 30.07 in 1.0 mi WSW 3.5 mph - N/A   Overcast
9:53 AM 37.0 °F 34.5 °F 36.0 °F 96% 30.11 in 1.8 mi West 3.5 mph - N/A   Overcast
10:12 AM 37.4 °F 34.9 °F 35.6 °F 93% 30.08 in 3.0 mi West 3.5 mph - N/A   Overcast
10:53 AM 37.0 °F - 36.0 °F 96% 30.12 in 10.0 mi Calm Calm - N/A   Overcast
11:53 AM 37.9 °F - 36.0 °F 93% 30.11 in 10.0 mi Calm Calm - N/A   Overcast
12:21 PM 37.4 °F 34.9 °F 35.6 °F 93% 30.06 in 10.0 mi SW 3.5 mph - N/A   Overcast
12:53 PM 39.0 °F - 36.0 °F 89% 30.09 in 10.0 mi Calm Calm - N/A   Overcast
1:53 PM 39.9 °F - 35.1 °F 83% 30.09 in 10.0 mi Calm Calm - N/A   Overcast
2:29 PM 39.2 °F - 35.6 °F 87% 30.05 in 10.0 mi Calm Calm - N/A   Overcast
2:53 PM 39.9 °F - 35.1 °F 83% 30.10 in 10.0 mi Calm Calm - N/A   Overcast
3:31 PM 39.2 °F - 35.6 °F 87% 30.06 in 10.0 mi Calm Calm - N/A   Overcast
3:53 PM 39.9 °F - 35.1 °F 83% 30.11 in 10.0 mi Calm Calm - N/A   Overcast
4:02 PM 39.2 °F - 35.6 °F 87% 30.07 in 10.0 mi Calm Calm - N/A   Overcast
4:53 PM 37.9 °F - 36.0 °F 93% 30.12 in 10.0 mi Calm Calm - N/A   Overcast
5:53 PM 37.0 °F - 35.1 °F 93% 30.12 in 10.0 mi Calm Calm - N/A   Overcast
6:53 PM 36.0 °F - 34.0 °F 93% 30.12 in 7.0 mi Calm Calm - N/A   Overcast
7:53 PM 37.0 °F - 35.1 °F 93% 30.11 in 9.0 mi Calm Calm - N/A   Overcast
8:53 PM 37.0 °F - 35.1 °F 93% 30.11 in 10.0 mi Calm Calm - N/A   Overcast
9:53 PM 37.0 °F - 35.1 °F 93% 30.10 in 10.0 mi Calm Calm - N/A   Overcast
10:53 PM 37.0 °F 34.5 °F 34.0 °F 89% 30.09 in 10.0 mi South 3.5 mph - N/A   Overcast
11:53 PM 36.0 °F 33.3 °F 33.1 °F 89% 30.10 in 10.0 mi South 3.5 mph - N/A   Partly Cloudy